Home > Weather > Porta Westfalica > Past weeks

Flag for Germany Past Weather in Porta Westfalica, North Rhine-Westphalia, Germany — Yesterday and Last 2 Weeks

Now
57 °F

Cool.


Feels Like: 55 °F
Forecast: 54 / 67 °F
Wind: 12 mph from West

Location: Bueckeburg

Current Time: Jun 26, 2016 at 8:31:25 AM

Latest Report: Jun 26, 2016 at 7:20 AM


Visibility: N/A

Pressure: 30.01 "Hg

Humidity: 88%

Dew Point: 54 °F

Location of Porta WestfalicaLocation

Past Weather in Porta Westfalica — Graph

°F

Porta Westfalica Temperature Yesterday

Maximum temperature yesterday: 68 °F (at 12:20 AM)
Minimum temperature yesterday: 57 °F (at 8:20 PM)
Average temperature yesterday: 62 °F

High & Low Weather Summary for the Past Weeks

 TemperatureHumidityPressure
High90 °F (Jun 23, 4:20 PM)100% (Jun 12, 10:20 PM)30.24 "Hg (Jun 12, 10:20 PM)
Low50 °F (Jun 20, 1:20 AM)38% (Jun 11, 4:20 PM)29.45 "Hg (Jun 14, 4:20 PM)
Average64 °F79%29.86 "Hg
* Reported Jun 11 7:20 AM — Jun 26 7:20 AM, Porta Westfalica, Weather by CustomWeather, © 2016

Note: Actual official high and low records may vary slightly from our data, if they occured in-between our weather recording intervals... More about our weather records

Advertising

Porta Westfalica Weather History for the Previous 24 Hours

Scroll right to see more
 ConditionsComfort  
Time TempWeatherWind HumidityBarometerVisibility
7:20 AM
Sun, Jun 26
57 °FCool.12 mph88%30.01 "HgN/A
6:20 AM57 °FCool.10 mph94%30.01 "HgN/A
5:20 AM57 °FFog.10 mph94%29.98 "Hg3 mi
4:20 AM57 °FPassing clouds.6 mph94%29.98 "Hg4 mi
3:20 AM57 °FPartly cloudy.8 mph94%29.98 "Hg5 mi
2:20 AM57 °FPassing clouds.9 mph94%29.95 "Hg5 mi
1:20 AM57 °FPassing clouds.7 mph100%29.98 "Hg5 mi
12:20 AM57 °FPartly cloudy.8 mph94%29.98 "HgN/A
11:20 PM
Sat, Jun 25
57 °FPassing clouds.8 mph94%29.98 "HgN/A
10:20 PM57 °FPartly sunny.13 mph94%29.95 "HgN/A
9:49 PM57 °FDrizzle. Partly sunny.9 mph100%29.92 "Hg5 mi
9:20 PM57 °FDrizzle. Fog.12 mph94%29.92 "Hg2 mi
8:20 PM57 °FDrizzle. Fog.13 mph100%29.92 "Hg1 mi
7:20 PM59 °FDrizzle. Fog.13 mph94%29.89 "Hg1 mi
6:20 PM61 °FDrizzle. Fog.10 mph94%29.89 "Hg2 mi
5:20 PM61 °FCool.9 mph100%29.86 "HgN/A
4:20 PM63 °FMild.9 mph100%29.89 "HgN/A
3:20 PM63 °FMild.6 mph100%29.89 "HgN/A
2:20 PM64 °FMild.5 mph94%29.89 "HgN/A
1:20 PM64 °FMild.5 mph94%29.89 "HgN/A
12:20 PM64 °FMild.2 mph94%29.92 "HgN/A
11:20 AM63 °FMild.5 mph94%29.95 "HgN/A
10:20 AM63 °FMild.7 mph94%29.95 "HgN/A
9:20 AM63 °FMild.6 mph94%29.95 "HgN/A
8:20 AM63 °FMild.5 mph100%29.95 "HgN/A
Weather by CustomWeather, © 2016

See weather overviewHow to use our weather pages